| time (UTC) | temp F | wind direction | speed MPH | gust MPH | rain 1hr in | rain 24hr in | rain mn in | humidity % | barometer mb |
| 20260505200503 | 62 | 349 | 3.0 | 11.0 | 0.00 | 0.00 | 0.00 | 47 | 1012.3 |
| 20260505200003 | 62 | 316 | 3.0 | 8.0 | 0.00 | 0.00 | 0.00 | 47 | 1012.3 |
| 20260505195524 | 61 | 324 | 4.0 | 10.0 | 0.00 | 0.00 | 0.00 | 48 | 1012.6 |
| 20260505195003 | 60 | 344 | 4.0 | 10.0 | 0.00 | 0.00 | 0.00 | 48 | 1012.6 |
| 20260505194503 | 60 | 350 | 4.0 | 13.0 | 0.00 | 0.00 | 0.00 | 48 | 1012.6 |
| 20260505194003 | 60 | 335 | 6.0 | 13.0 | 0.00 | 0.00 | 0.00 | 48 | 1012.6 |
| 20260505193504 | 59 | 320 | 6.0 | 11.0 | 0.00 | 0.00 | 0.00 | 49 | 1013.0 |
| 20260505193003 | 59 | 326 | 6.0 | 11.0 | 0.00 | 0.00 | 0.00 | 50 | 1013.0 |
| 20260505192504 | 58 | 323 | 6.0 | 10.0 | 0.00 | 0.00 | 0.00 | 50 | 1012.9 |
| 20260505192003 | 59 | 269 | 5.0 | 8.0 | 0.00 | 0.00 | 0.00 | 50 | 1012.9 |
| 20260505191503 | 58 | 206 | 5.0 | 8.0 | 0.00 | 0.00 | 0.00 | 55 | 1013.0 |
| 20260505191003 | 58 | 199 | 6.0 | 9.0 | 0.00 | 0.00 | 0.00 | 59 | 1013.2 |
| 20260505190503 | 57 | 189 | 7.0 | 11.0 | 0.00 | 0.00 | 0.00 | 58 | 1013.2 |
| 20260505190003 | 58 | 182 | 7.0 | 11.0 | 0.00 | 0.00 | 0.00 | 57 | 1013.4 |
| 20260505185524 | 58 | 188 | 7.0 | 13.0 | 0.00 | 0.00 | 0.00 | 57 | 1013.2 |
| 20260505185003 | 57 | 206 | 7.0 | 13.0 | 0.00 | 0.00 | 0.00 | 57 | 1013.4 |
| 20260505184503 | 58 | 268 | 5.0 | 9.0 | 0.00 | 0.00 | 0.00 | 55 | 1013.2 |
| 20260505184003 | 59 | 293 | 6.0 | 13.0 | 0.00 | 0.00 | 0.00 | 51 | 1013.0 |
| 20260505183503 | 58 | 293 | 6.0 | 13.0 | 0.00 | 0.00 | 0.00 | 51 | 1013.2 |
| 20260505183024 | 59 | 311 | 6.0 | 10.0 | 0.00 | 0.00 | 0.00 | 51 | 1013.3 |
| 20260505182503 | 59 | 310 | 7.0 | 13.0 | 0.00 | 0.00 | 0.00 | 50 | 1013.0 |
| 20260505182004 | 59 | 302 | 7.0 | 13.0 | 0.00 | 0.00 | 0.00 | 52 | 1013.3 |
| 20260505181503 | 59 | 302 | 3.0 | 9.0 | 0.00 | 0.00 | 0.00 | 50 | 1013.2 |
| 20260505181003 | 60 | 206 | 2.0 | 8.0 | 0.00 | 0.00 | 0.00 | 47 | 1012.9 |
| 20260505180504 | 59 | 202 | 3.0 | 8.0 | 0.00 | 0.00 | 0.00 | 48 | 1013.0 |
| 20260505180003 | 58 | 214 | 3.0 | 7.0 | 0.00 | 0.00 | 0.00 | 50 | 1013.0 |
| 20260505175503 | 59 | 218 | 4.0 | 8.0 | 0.00 | 0.00 | 0.00 | 48 | 1013.2 |
| 20260505175003 | 59 | 207 | 4.0 | 8.0 | 0.00 | 0.00 | 0.00 | 46 | 1013.3 |
| 20260505174504 | 60 | 239 | 3.0 | 7.0 | 0.00 | 0.00 | 0.00 | 46 | 1012.9 |
| 20260505174003 | 59 | 260 | 3.0 | 7.0 | 0.00 | 0.00 | 0.00 | 46 | 1013.0 |
| 20260505173524 | 60 | 258 | 4.0 | 7.0 | 0.00 | 0.00 | 0.00 | 46 | 1013.0 |
| 20260505173003 | 59 | 223 | 4.0 | 10.0 | 0.00 | 0.00 | 0.00 | 46 | 1012.9 |
| 20260505172524 | 60 | 206 | 4.0 | 10.0 | 0.00 | 0.00 | 0.00 | 46 | 1013.0 |
| 20260505172003 | 60 | 258 | 2.0 | 7.0 | 0.00 | 0.00 | 0.00 | 45 | 1012.7 |
| 20260505171503 | 60 | 320 | 2.0 | 7.0 | 0.00 | 0.00 | 0.00 | 45 | 1012.9 |
| 20260505171003 | 59 | 309 | 3.0 | 7.0 | 0.00 | 0.00 | 0.00 | 46 | 1013.0 |
| 20260505170503 | 58 | 321 | 4.0 | 9.0 | 0.00 | 0.00 | 0.00 | 47 | 1013.2 |
| 20260505170003 | 58 | 329 | 6.0 | 11.0 | 0.00 | 0.00 | 0.00 | 48 | 1013.2 |
| 20260505165503 | 58 | 337 | 5.0 | 11.0 | 0.00 | 0.00 | 0.00 | 46 | 1013.2 |
| 20260505165003 | 58 | 359 | 4.0 | 10.0 | 0.00 | 0.00 | 0.00 | 46 | 1013.3 |
| 20260505164503 | 59 | 1 | 4.0 | 10.0 | 0.00 | 0.00 | 0.00 | 47 | 1013.3 |
| 20260505164004 | 58 | 359 | 5.0 | 10.0 | 0.00 | 0.00 | 0.00 | 47 | 1012.9 |
| 20260505163503 | 58 | 1 | 6.0 | 14.0 | 0.00 | 0.00 | 0.00 | 49 | 1012.9 |
| 20260505163003 | 57 | 2 | 6.0 | 14.0 | 0.00 | 0.00 | 0.00 | 49 | 1013.2 |
| 20260505162503 | 57 | 4 | 5.0 | 10.0 | 0.00 | 0.00 | 0.00 | 48 | 1013.4 |
| 20260505162003 | 57 | 5 | 6.0 | 13.0 | 0.00 | 0.00 | 0.00 | 50 | 1013.5 |
| 20260505161503 | 56 | 4 | 7.0 | 15.0 | 0.00 | 0.00 | 0.00 | 51 | 1013.2 |
| 20260505161003 | 55 | 3 | 8.0 | 15.0 | 0.00 | 0.00 | 0.00 | 54 | 1013.2 |
| 20260505160503 | 55 | 3 | 7.0 | 15.0 | 0.00 | 0.00 | 0.00 | 56 | 1013.3 |
| 20260505153024 | 55 | 3 | 10.0 | 21.0 | 0.00 | 0.00 | 0.00 | 55 | 1013.5 |
| 20260505152503 | 55 | 1 | 10.0 | 21.0 | 0.00 | 0.00 | 0.00 | 58 | 1013.9 |
| 20260505152003 | 55 | 356 | 10.0 | 21.0 | 0.00 | 0.00 | 0.00 | 59 | 1014.1 |
| 20260505151503 | 55 | 355 | 9.0 | 17.0 | 0.00 | 0.00 | 0.00 | 62 | 1014.1 |
| 20260505151003 | 55 | 357 | 9.0 | 17.0 | 0.00 | 0.00 | 0.00 | 64 | 1014.1 |
| 20260505150503 | 55 | 355 | 8.0 | 15.0 | 0.00 | 0.00 | 0.00 | 64 | 1014.1 |
| 20260505140504 | 55 | 5 | 8.0 | 15.0 | 0.00 | 0.00 | 0.00 | 58 | 1013.7 |
| 20260505125003 | 59 | 297 | 4.0 | 7.0 | 0.00 | 0.00 | 0.00 | 39 | 1013.0 |
| 20260505124503 | 59 | 302 | 5.0 | 8.0 | 0.00 | 0.00 | 0.00 | 39 | 1012.7 |
| 20260505124003 | 59 | 303 | 6.0 | 8.0 | 0.00 | 0.00 | 0.00 | 39 | 1012.6 |
| 20260505123504 | 59 | 296 | 6.0 | 8.0 | 0.00 | 0.00 | 0.00 | 39 | 1012.7 |
| 20260505123003 | 59 | 289 | 6.0 | 10.0 | 0.00 | 0.00 | 0.00 | 39 | 1012.8 |
| 20260505122503 | 59 | 283 | 6.0 | 10.0 | 0.00 | 0.00 | 0.00 | 38 | 1012.8 |
| 20260505122024 | 59 | 276 | 6.0 | 9.0 | 0.00 | 0.00 | 0.00 | 38 | 1012.7 |
| 20260505121503 | 59 | 274 | 7.0 | 10.0 | 0.00 | 0.00 | 0.00 | 38 | 1012.7 |
| 20260505121024 | 59 | 272 | 6.0 | 10.0 | 0.00 | 0.00 | 0.00 | 38 | 1012.7 |
| 20260505120503 | 59 | 276 | 6.0 | 10.0 | 0.00 | 0.00 | 0.00 | 38 | 1012.6 |
| 20260505120004 | 59 | 291 | 5.0 | 9.0 | 0.00 | 0.00 | 0.00 | 38 | 1012.8 |
| 20260505115524 | 59 | 300 | 5.0 | 8.0 | 0.00 | 0.00 | 0.00 | 38 | 1012.7 |
| 20260505115003 | 59 | 292 | 6.0 | 10.0 | 0.00 | 0.00 | 0.00 | 38 | 1012.7 |
| 20260505114503 | 59 | 283 | 7.0 | 10.0 | 0.00 | 0.00 | 0.00 | 38 | 1012.9 |
| 20260505114003 | 59 | 279 | 7.0 | 10.0 | 0.00 | 0.00 | 0.00 | 39 | 1012.5 |
| 20260505113503 | 59 | 275 | 6.0 | 10.0 | 0.00 | 0.00 | 0.00 | 39 | 1012.3 |
| 20260505113003 | 59 | 278 | 7.0 | 11.0 | 0.00 | 0.00 | 0.00 | 39 | 1012.3 |
| 20260505112503 | 59 | 278 | 7.0 | 11.0 | 0.00 | 0.00 | 0.00 | 39 | 1012.2 |
| 20260505112003 | 59 | 277 | 7.0 | 10.0 | 0.00 | 0.00 | 0.00 | 38 | 1012.5 |
| 20260505111524 | 59 | 283 | 7.0 | 10.0 | 0.00 | 0.00 | 0.00 | 37 | 1012.3 |
| 20260505111003 | 59 | 288 | 8.0 | 10.0 | 0.00 | 0.00 | 0.00 | 37 | 1012.2 |
| 20260505110504 | 60 | 284 | 8.0 | 11.0 | 0.00 | 0.00 | 0.00 | 37 | 1012.3 |
| 20260505102003 | 59 | 279 | 5.0 | 8.0 | 0.00 | 0.00 | 0.00 | 34 | 1012.7 |
| 20260505101503 | 60 | 274 | 4.0 | 8.0 | 0.00 | 0.00 | 0.00 | 34 | 1012.9 |
| 20260505101003 | 59 | 267 | 3.0 | 4.0 | 0.00 | 0.00 | 0.00 | 34 | 1012.8 |
| 20260505100503 | 59 | 269 | 3.0 | 4.0 | 0.00 | 0.00 | 0.00 | 35 | 1012.7 |
| 20260505100003 | 59 | 276 | 3.0 | 4.0 | 0.00 | 0.00 | 0.00 | 35 | 1012.7 |
| 20260505095503 | 59 | 281 | 3.0 | 4.0 | 0.00 | 0.00 | 0.00 | 36 | 1012.7 |
| 20260505095003 | 60 | 280 | 3.0 | 4.0 | 0.00 | 0.00 | 0.00 | 35 | 1012.7 |
| 20260505094503 | 60 | 273 | 3.0 | 6.0 | 0.00 | 0.00 | 0.00 | 34 | 1012.5 |
| 20260505094003 | 60 | 272 | 3.0 | 6.0 | 0.00 | 0.00 | 0.00 | 34 | 1012.5 |
| 20260505093503 | 60 | 275 | 3.0 | 4.0 | 0.00 | 0.00 | 0.00 | 34 | 1012.6 |
| 20260505093003 | 60 | 276 | 3.0 | 3.0 | 0.00 | 0.00 | 0.00 | 34 | 1012.5 |
| 20260505092503 | 60 | 276 | 2.0 | 3.0 | 0.00 | 0.00 | 0.00 | 34 | 1012.6 |
| 20260505092003 | 60 | 276 | 2.0 | 2.0 | 0.00 | 0.00 | 0.00 | 35 | 1012.5 |
| 20260505091503 | 60 | 276 | 2.0 | 2.0 | 0.00 | 0.00 | 0.00 | 34 | 1012.7 |
| 20260505091003 | 60 | 276 | 1.0 | 2.0 | 0.00 | 0.00 | 0.00 | 34 | 1012.9 |
| 20260505090503 | 60 | 277 | 2.0 | 3.0 | 0.00 | 0.00 | 0.00 | 34 | 1012.7 |
| 20260505090004 | 60 | 278 | 2.0 | 3.0 | 0.00 | 0.00 | 0.00 | 34 | 1012.9 |
| 20260505085503 | 60 | 281 | 2.0 | 3.0 | 0.00 | 0.00 | 0.00 | 34 | 1012.9 |
| 20260505085003 | 60 | 284 | 2.0 | 3.0 | 0.00 | 0.00 | 0.00 | 34 | 1013.0 |
| 20260505084504 | 61 | 287 | 2.0 | 3.0 | 0.00 | 0.00 | 0.00 | 33 | 1013.0 |
| 20260505084003 | 61 | 289 | 2.0 | 2.0 | 0.00 | 0.00 | 0.00 | 33 | 1013.2 |
| 20260505083524 | 62 | 293 | 2.0 | 3.0 | 0.00 | 0.00 | 0.00 | 32 | 1013.2 |
| 20260505083003 | 62 | 302 | 3.0 | 9.0 | 0.00 | 0.00 | 0.00 | 32 | 1013.3 |
| 20260505082504 | 62 | 317 | 4.0 | 9.0 | 0.00 | 0.00 | 0.00 | 32 | 1013.3 |
| 20260505082003 | 62 | 323 | 6.0 | 10.0 | 0.00 | 0.00 | 0.00 | 31 | 1013.2 |
| 20260505081524 | 62 | 318 | 7.0 | 15.0 | 0.00 | 0.00 | 0.00 | 31 | 1013.3 |
| 20260505081003 | 63 | 294 | 8.0 | 15.0 | 0.00 | 0.00 | 0.00 | 31 | 1013.0 |
| 20260505080503 | 63 | 282 | 9.0 | 14.0 | 0.00 | 0.00 | 0.00 | 30 | 1013.3 |
| 20260505080003 | 63 | 284 | 9.0 | 14.0 | 0.00 | 0.00 | 0.00 | 30 | 1013.2 |
| 20260505075504 | 63 | 286 | 8.0 | 13.0 | 0.00 | 0.00 | 0.00 | 30 | 1013.3 |
| 20260505075003 | 63 | 285 | 7.0 | 11.0 | 0.00 | 0.00 | 0.00 | 31 | 1013.4 |
| 20260505074503 | 63 | 273 | 7.0 | 13.0 | 0.00 | 0.00 | 0.00 | 31 | 1013.5 |
| 20260505074024 | 63 | 268 | 8.0 | 13.0 | 0.00 | 0.00 | 0.00 | 31 | 1013.4 |
| 20260505073503 | 63 | 267 | 8.0 | 13.0 | 0.00 | 0.00 | 0.00 | 31 | 1013.3 |
| 20260505073003 | 63 | 270 | 7.0 | 11.0 | 0.00 | 0.00 | 0.00 | 31 | 1013.0 |
| 20260505072524 | 63 | 272 | 8.0 | 11.0 | 0.00 | 0.00 | 0.00 | 31 | 1013.3 |
| 20260505072024 | 64 | 263 | 8.0 | 11.0 | 0.00 | 0.00 | 0.00 | 31 | 1013.0 |
| 20260505071503 | 64 | 253 | 8.0 | 11.0 | 0.00 | 0.00 | 0.00 | 30 | 1013.3 |
| 20260505071003 | 64 | 246 | 8.0 | 13.0 | 0.00 | 0.00 | 0.00 | 30 | 1013.4 |
| 20260505070503 | 64 | 244 | 9.0 | 13.0 | 0.00 | 0.00 | 0.00 | 30 | 1013.2 |
| 20260505070003 | 64 | 248 | 9.0 | 15.0 | 0.00 | 0.00 | 0.00 | 30 | 1012.9 |
| 20260505065504 | 64 | 253 | 9.0 | 15.0 | 0.00 | 0.00 | 0.00 | 29 | 1012.8 |
| 20260505065003 | 64 | 254 | 9.0 | 14.0 | 0.00 | 0.00 | 0.00 | 29 | 1012.7 |
| 20260505064504 | 64 | 250 | 9.0 | 15.0 | 0.00 | 0.00 | 0.00 | 29 | 1012.8 |
| 20260505064003 | 65 | 252 | 9.0 | 15.0 | 0.00 | 0.00 | 0.00 | 28 | 1012.8 |
| 20260505063503 | 64 | 258 | 9.0 | 15.0 | 0.00 | 0.00 | 0.00 | 28 | 1012.8 |
| 20260505063003 | 65 | 260 | 9.0 | 15.0 | 0.00 | 0.00 | 0.00 | 28 | 1012.6 |
| 20260505062503 | 65 | 256 | 8.0 | 14.0 | 0.00 | 0.00 | 0.00 | 28 | 1012.6 |
| 20260505062004 | 65 | 255 | 7.0 | 13.0 | 0.00 | 0.00 | 0.00 | 27 | 1012.8 |
| 20260505061503 | 65 | 257 | 8.0 | 14.0 | 0.00 | 0.00 | 0.00 | 27 | 1012.7 |
| 20260505061003 | 65 | 261 | 9.0 | 14.0 | 0.00 | 0.00 | 0.00 | 26 | 1012.7 |
| 20260505060503 | 65 | 267 | 10.0 | 16.0 | 0.00 | 0.00 | 0.00 | 26 | 1012.7 |
| 20260505060024 | 66 | 272 | 11.0 | 16.0 | 0.00 | 0.00 | 0.00 | 26 | 1012.3 |
| 20260505055503 | 66 | 275 | 12.0 | 17.0 | 0.00 | 0.00 | 0.00 | 26 | 1012.5 |
| 20260505055025 | 66 | 271 | 13.0 | 18.0 | 0.00 | 0.00 | 0.00 | 25 | 1012.5 |
| 20260505054524 | 66 | 269 | 12.0 | 18.0 | 0.00 | 0.00 | 0.00 | 25 | 1012.5 |
| 20260505054003 | 66 | 272 | 12.0 | 17.0 | 0.00 | 0.00 | 0.00 | 25 | 1012.3 |
| 20260505053524 | 67 | 269 | 12.0 | 21.0 | 0.00 | 0.00 | 0.00 | 25 | 1012.1 |
| 20260505053003 | 67 | 264 | 12.0 | 21.0 | 0.00 | 0.00 | 0.00 | 25 | 1012.3 |
| 20260505052503 | 67 | 262 | 11.0 | 16.0 | 0.00 | 0.00 | 0.00 | 24 | 1012.2 |
| 20260505052003 | 67 | 263 | 9.0 | 16.0 | 0.00 | 0.00 | 0.00 | 24 | 1012.0 |
| 20260505051503 | 67 | 267 | 8.0 | 13.0 | 0.00 | 0.00 | 0.00 | 24 | 1012.6 |
| 20260505051003 | 67 | 264 | 8.0 | 14.0 | 0.00 | 0.00 | 0.00 | 24 | 1012.5 |
| 20260505050524 | 67 | 258 | 8.0 | 14.0 | 0.00 | 0.00 | 0.00 | 24 | 1012.3 |
| 20260505041503 | 68 | 270 | 5.0 | 9.0 | 0.00 | 0.00 | 0.00 | 24 | 1012.0 |
| 20260505041024 | 68 | 269 | 5.0 | 8.0 | 0.00 | 0.00 | 0.00 | 24 | 1012.0 |
| 20260505040503 | 69 | 272 | 5.0 | 9.0 | 0.00 | 0.00 | 0.00 | 24 | 1012.0 |
| 20260505040004 | 69 | 278 | 6.0 | 9.0 | 0.00 | 0.00 | 0.00 | 23 | 1012.1 |
| 20260505035503 | 69 | 286 | 7.0 | 11.0 | 0.00 | 0.00 | 0.00 | 23 | 1012.1 |
| 20260505035024 | 69 | 287 | 7.0 | 11.0 | 0.00 | 0.00 | 0.00 | 23 | 1012.1 |
| 20260505034503 | 69 | 291 | 7.0 | 10.0 | 0.00 | 0.00 | 0.00 | 23 | 1011.9 |
| 20260505034003 | 69 | 295 | 7.0 | 10.0 | 0.00 | 0.00 | 0.00 | 23 | 1011.9 |
| 20260505033504 | 69 | 294 | 7.0 | 10.0 | 0.00 | 0.00 | 0.00 | 23 | 1011.9 |
| 20260505033003 | 70 | 300 | 7.0 | 10.0 | 0.00 | 0.00 | 0.00 | 23 | 1012.0 |
| 20260505032503 | 70 | 303 | 7.0 | 11.0 | 0.00 | 0.00 | 0.00 | 23 | 1011.9 |
| 20260505032003 | 70 | 308 | 8.0 | 13.0 | 0.00 | 0.00 | 0.00 | 23 | 1011.5 |
| 20260505031503 | 70 | 313 | 8.0 | 13.0 | 0.00 | 0.00 | 0.00 | 22 | 1011.3 |
| 20260505031003 | 70 | 318 | 9.0 | 14.0 | 0.00 | 0.00 | 0.00 | 23 | 1011.5 |
| 20260505030503 | 70 | 325 | 11.0 | 15.0 | 0.00 | 0.00 | 0.00 | 22 | 1011.5 |
| 20260505030003 | 70 | 330 | 12.0 | 19.0 | 0.00 | 0.00 | 0.00 | 22 | 1011.2 |
| 20260505025524 | 71 | 331 | 12.0 | 19.0 | 0.00 | 0.00 | 0.00 | 22 | 1011.2 |
| 20260505025003 | 71 | 315 | 12.0 | 19.0 | 0.00 | 0.00 | 0.00 | 22 | 1011.0 |
| 20260505024503 | 71 | 297 | 13.0 | 19.0 | 0.00 | 0.00 | 0.00 | 21 | 1011.2 |
| 20260505024024 | 71 | 291 | 14.0 | 19.0 | 0.00 | 0.00 | 0.00 | 21 | 1010.9 |
| 20260505023503 | 72 | 288 | 13.0 | 21.0 | 0.00 | 0.00 | 0.00 | 21 | 1010.6 |
| 20260505023003 | 72 | 284 | 11.0 | 21.0 | 0.00 | 0.00 | 0.00 | 20 | 1011.2 |
| 20260505022503 | 71 | 281 | 11.0 | 19.0 | 0.00 | 0.00 | 0.00 | 20 | 1010.8 |
| 20260505022003 | 72 | 282 | 12.0 | 19.0 | 0.00 | 0.00 | 0.00 | 20 | 1011.0 |
| 20260505021504 | 72 | 290 | 12.0 | 18.0 | 0.00 | 0.00 | 0.00 | 20 | 1010.8 |
| 20260505021024 | 72 | 289 | 13.0 | 21.0 | 0.00 | 0.00 | 0.00 | 20 | 1010.8 |
| 20260505020524 | 72 | 283 | 13.0 | 22.0 | 0.00 | 0.00 | 0.00 | 19 | 1010.8 |
| 20260505020003 | 72 | 278 | 13.0 | 22.0 | 0.00 | 0.00 | 0.00 | 19 | 1010.5 |
| 20260505015503 | 73 | 279 | 13.0 | 19.0 | 0.00 | 0.00 | 0.00 | 19 | 1010.5 |
| 20260505015003 | 73 | 281 | 11.0 | 19.0 | 0.00 | 0.00 | 0.00 | 19 | 1010.5 |
| 20260505014504 | 73 | 281 | 10.0 | 18.0 | 0.00 | 0.00 | 0.00 | 20 | 1010.5 |
| 20260505014003 | 73 | 280 | 9.0 | 16.0 | 0.00 | 0.00 | 0.00 | 20 | 1010.5 |
| 20260505013503 | 73 | 280 | 7.0 | 13.0 | 0.00 | 0.00 | 0.00 | 20 | 1010.3 |
| 20260505013025 | 73 | 282 | 8.0 | 14.0 | 0.00 | 0.00 | 0.00 | 20 | 1010.3 |
| 20260505012503 | 74 | 286 | 9.0 | 14.0 | 0.00 | 0.00 | 0.00 | 20 | 1010.1 |
| 20260505012003 | 74 | 286 | 10.0 | 16.0 | 0.00 | 0.00 | 0.00 | 20 | 1010.1 |
| 20260505011504 | 74 | 287 | 11.0 | 17.0 | 0.00 | 0.00 | 0.00 | 19 | 1010.2 |
| 20260505011003 | 74 | 288 | 11.0 | 17.0 | 0.00 | 0.00 | 0.00 | 19 | 1010.1 |
| 20260505010524 | 74 | 282 | 10.0 | 16.0 | 0.00 | 0.00 | 0.00 | 19 | 1010.1 |
| 20260505010003 | 74 | 282 | 11.0 | 17.0 | 0.00 | 0.00 | 0.00 | 19 | 1010.2 |
| 20260505005503 | 74 | 282 | 12.0 | 19.0 | 0.00 | 0.00 | 0.00 | 19 | 1010.2 |
| 20260505005004 | 74 | 281 | 11.0 | 19.0 | 0.00 | 0.00 | 0.00 | 19 | 1010.3 |
| 20260505004503 | 75 | 282 | 10.0 | 16.0 | 0.00 | 0.00 | 0.00 | 18 | 1010.0 |
| 20260505004003 | 75 | 283 | 11.0 | 18.0 | 0.00 | 0.00 | 0.00 | 18 | 1010.1 |
| 20260505003503 | 75 | 284 | 12.0 | 19.0 | 0.00 | 0.00 | 0.00 | 18 | 1010.2 |
| 20260505003003 | 75 | 284 | 12.0 | 19.0 | 0.00 | 0.00 | 0.00 | 17 | 1010.2 |
| 20260505002503 | 75 | 283 | 11.0 | 19.0 | 0.00 | 0.00 | 0.00 | 17 | 1010.2 |
| 20260505002024 | 75 | 281 | 13.0 | 22.0 | 0.00 | 0.00 | 0.00 | 17 | 1010.7 |
| 20260505001503 | 75 | 282 | 15.0 | 23.0 | 0.00 | 0.00 | 0.00 | 17 | 1010.3 |
| 20260505001003 | 76 | 281 | 15.0 | 23.0 | 0.00 | 0.00 | 0.00 | 16 | 1010.1 |
| 20260505000503 | 76 | 274 | 14.0 | 23.0 | 0.00 | 0.00 | 0.00 | 16 | 1010.3 |
| 20260505000003 | 76 | 270 | 13.0 | 21.0 | 0.00 | 0.00 | 0.00 | 16 | 1010.2 |
| 20260504235525 | 76 | 273 | 12.0 | 22.0 | 0.00 | 0.00 | 0.00 | 16 | 1010.1 |
| 20260504235003 | 75 | 273 | 12.0 | 22.0 | 0.00 | 0.00 | 0.00 | 16 | 1010.3 |
| 20260504234503 | 76 | 278 | 12.0 | 18.0 | 0.00 | 0.00 | 0.00 | 15 | 1010.3 |
| 20260504234024 | 76 | 279 | 11.0 | 18.0 | 0.00 | 0.00 | 0.00 | 15 | 1010.5 |
| 20260504233524 | 76 | 273 | 11.0 | 17.0 | 0.00 | 0.00 | 0.00 | 15 | 1010.6 |
| 20260504233003 | 76 | 281 | 12.0 | 17.0 | 0.00 | 0.00 | 0.00 | 15 | 1010.7 |
| 20260504232503 | 75 | 283 | 12.0 | 19.0 | 0.00 | 0.00 | 0.00 | 15 | 1010.7 |
| 20260504232003 | 76 | 275 | 13.0 | 19.0 | 0.00 | 0.00 | 0.00 | 15 | 1010.7 |
| 20260504231503 | 76 | 275 | 12.0 | 19.0 | 0.00 | 0.00 | 0.00 | 14 | 1010.7 |
| 20260504231003 | 76 | 275 | 11.0 | 17.0 | 0.00 | 0.00 | 0.00 | 14 | 1010.9 |
| 20260504230503 | 76 | 271 | 12.0 | 21.0 | 0.00 | 0.00 | 0.00 | 13 | 1010.7 |
| 20260504230003 | 76 | 281 | 13.0 | 21.0 | 0.00 | 0.00 | 0.00 | 13 | 1010.7 |
| 20260504225524 | 76 | 282 | 13.0 | 21.0 | 0.00 | 0.00 | 0.00 | 13 | 1010.9 |
| 20260504225024 | 76 | 269 | 13.0 | 21.0 | 0.00 | 0.00 | 0.00 | 13 | 1010.6 |
| 20260504224503 | 77 | 268 | 12.0 | 19.0 | 0.00 | 0.00 | 0.00 | 12 | 1010.9 |
| 20260504224003 | 77 | 270 | 13.0 | 22.0 | 0.00 | 0.00 | 0.00 | 12 | 1010.8 |
| 20260504223503 | 77 | 273 | 13.0 | 22.0 | 0.00 | 0.00 | 0.00 | 13 | 1010.7 |
| 20260504223003 | 77 | 273 | 13.0 | 25.0 | 0.00 | 0.00 | 0.00 | 13 | 1010.8 |
| 20260504222503 | 77 | 269 | 13.0 | 25.0 | 0.00 | 0.00 | 0.00 | 12 | 1011.2 |
| 20260504222003 | 77 | 269 | 12.0 | 19.0 | 0.00 | 0.00 | 0.00 | 12 | 1011.2 |
| 20260504221503 | 77 | 265 | 13.0 | 19.0 | 0.00 | 0.00 | 0.00 | 13 | 1011.2 |
| 20260504221003 | 77 | 258 | 13.0 | 23.0 | 0.00 | 0.00 | 0.00 | 12 | 1011.2 |
| 20260504220503 | 77 | 251 | 14.0 | 25.0 | 0.00 | 0.00 | 0.00 | 12 | 1011.5 |
| 20260504220004 | 77 | 256 | 13.0 | 25.0 | 0.00 | 0.00 | 0.00 | 11 | 1011.3 |
| 20260504215503 | 78 | 264 | 12.0 | 21.0 | 0.00 | 0.00 | 0.00 | 11 | 1011.2 |
| 20260504215003 | 77 | 251 | 13.0 | 21.0 | 0.00 | 0.00 | 0.00 | 11 | 1011.4 |
| 20260504214503 | 77 | 237 | 14.0 | 21.0 | 0.00 | 0.00 | 0.00 | 11 | 1011.3 |
| 20260504214003 | 77 | 243 | 14.0 | 24.0 | 0.00 | 0.00 | 0.00 | 12 | 1011.6 |
| 20260504213503 | 77 | 255 | 13.0 | 24.0 | 0.00 | 0.00 | 0.00 | 12 | 1011.6 |
| 20260504213003 | 78 | 244 | 13.0 | 22.0 | 0.00 | 0.00 | 0.00 | 12 | 1011.8 |
| 20260504212524 | 77 | 234 | 14.0 | 22.0 | 0.00 | 0.00 | 0.00 | 12 | 1011.8 |
| 20260504212003 | 78 | 245 | 13.0 | 27.0 | 0.00 | 0.00 | 0.00 | 12 | 1011.5 |
| 20260504211503 | 78 | 243 | 13.0 | 24.0 | 0.00 | 0.00 | 0.00 | 12 | 1011.8 |
| 20260504211003 | 77 | 243 | 15.0 | 24.0 | 0.00 | 0.00 | 0.00 | 12 | 1011.9 |
| 20260504210524 | 78 | 250 | 13.0 | 24.0 | 0.00 | 0.00 | 0.00 | 12 | 1011.9 |
| 20260504210024 | 78 | 253 | 13.0 | 25.0 | 0.00 | 0.00 | 0.00 | 12 | 1012.3 |
| 20260504205503 | 78 | 247 | 12.0 | 25.0 | 0.00 | 0.00 | 0.00 | 12 | 1012.0 |
| 20260504205003 | 78 | 243 | 9.0 | 16.0 | 0.00 | 0.00 | 0.00 | 14 | 1012.2 |
| 20260504204524 | 77 | 258 | 10.0 | 16.0 | 0.00 | 0.00 | 0.00 | 15 | 1012.3 |
| 20260504204003 | 77 | 268 | 10.0 | 18.0 | 0.00 | 0.00 | 0.00 | 15 | 1012.5 |
| 20260504203525 | 77 | 260 | 10.0 | 18.0 | 0.00 | 0.00 | 0.00 | 14 | 1012.8 |
| 20260504203003 | 76 | 247 | 10.0 | 18.0 | 0.00 | 0.00 | 0.00 | 15 | 1012.8 |
| 20260504202503 | 76 | 233 | 11.0 | 18.0 | 0.00 | 0.00 | 0.00 | 16 | 1013.0 |
| 20260504202003 | 76 | 250 | 10.0 | 17.0 | 0.00 | 0.00 | 0.00 | 16 | 1013.2 |
| 20260504201503 | 76 | 284 | 9.0 | 17.0 | 0.00 | 0.00 | 0.00 | 15 | 1013.4 |
| 20260504201003 | 76 | 292 | 7.0 | 16.0 | 0.00 | 0.00 | 0.00 | 17 | 1013.3 |